EW7614 Weather Reports


Display with metric or nautical units.
time (UTC)temp
F
wind
direction
speed
MPH
gust
MPH
rain 1hr
in
rain 24hr
in
rain mn
in
humidity
%
barometer
mb
20260901103048 70 137 0.0 2.0 0.00 0.14 0.01 64 1018.3
20260901101631 70 140 0.0 2.0 0.00 0.14 0.01 62 1018.4
20260901100106 69 142 0.0 3.0 0.00 0.14 0.01 61 1018.6
20260901094523 68 139 0.0 2.0 0.00 0.14 0.01 65 1018.7
20260901093121 67 128 0.0 4.0 0.00 0.14 0.01 67 1018.9
20260901091535 66 187 0.0 4.0 0.00 0.14 0.01 73 1019.1
20260901090123 65 148 0.0 3.0 0.00 0.14 0.01 73 1019.2
20260901084531 65 186 0.0 3.0 0.00 0.14 0.01 76 1019.3
20260901083119 64 159 0.0 1.0 0.00 0.14 0.01 79 1019.3
20260901081508 63 155 0.0 1.0 0.00 0.14 0.01 79 1019.5
20260901080108 62 161 0.0 0.0 0.00 0.14 0.01 84 1019.6
20260901074542 60 186 0.0 1.0 0.00 0.14 0.01 85 1019.6
20260901073115 59 187 0.0 0.0 0.00 0.14 0.01 86 1019.8
20260901071502 57 186 0.0 0.0 0.01 0.14 0.01 92 1019.8
20260901070035 55 184 0.0 0.0 0.01 0.14 0.01 93 1019.9
20260901064621 54 185 0.0 0.0 0.01 0.14 0.01 94 1020.0
20260901061531 53 185 0.0 0.0 0.00 0.13 0.00 97 1020.1
20260901060119 53 177 0.0 0.0 0.00 0.13 0.00 97 1020.0
20260901054550 52 177 0.0 0.0 0.00 0.13 0.00 97 1020.0
20260901053135 52 177 0.0 0.0 0.00 0.13 0.00 96 1019.8
20260901051544 52 167 0.0 0.0 0.00 0.13 0.00 96 1019.8
20260901050120 52 167 0.0 0.0 0.00 0.13 0.00 96 1019.8
20260901044534 52 167 0.0 0.0 0.00 0.19 0.00 96 1019.5
20260901043121 52 159 0.0 0.0 0.00 0.19 0.00 96 1019.6
20260901041552 52 180 0.0 0.0 0.00 0.19 0.00 96 1019.6
20260901040121 53 180 0.0 0.0 0.00 0.19 0.00 95 1019.5
20260901034529 53 184 0.0 0.0 0.00 0.25 0.00 95 1019.3
20260901033112 53 184 0.0 0.0 0.00 0.25 0.00 95 1019.4
20260901031555 53 184 0.0 0.0 0.00 0.25 0.00 95 1019.4
20260901030134 54 184 0.0 0.0 0.00 0.25 0.00 95 1019.4
20260901024557 54 184 0.0 0.0 0.00 0.25 0.00 95 1019.4
20260901023124 54 180 0.0 0.0 0.00 0.25 0.00 96 1019.4
20260901021524 55 167 0.0 0.0 0.00 0.25 0.00 96 1019.4
20260901020117 55 167 0.0 0.0 0.00 0.25 0.00 96 1019.4
20260901014558 55 167 0.0 0.0 0.00 0.25 0.00 95 1019.5
20260901013131 55 167 0.0 0.0 0.00 0.25 0.00 95 1019.3
20260901011608 56 167 0.0 0.0 0.00 0.25 0.00 95 1019.4
20260901010036 56 193 0.0 3.0 0.00 0.25 0.00 95 1019.2
20260901004616 56 155 0.0 1.0 0.00 0.25 0.00 96 1019.0
20260901003035 56 141 0.0 0.0 0.00 0.25 0.00 96 1019.1
20260901001618 57 140 0.0 0.0 0.00 0.25 0.00 96 1019.1
20260901000050 57 131 0.0 0.0 0.00 0.25 0.00 96 1019.1
20260831234636 57 131 0.0 0.0 0.00 0.25 0.00 96 1019.0
20260831233113 57 130 0.0 0.0 0.00 0.25 0.00 96 1018.9
20260831231618 57 122 0.0 1.0 0.00 0.25 0.00 96 1018.8
20260831230020 57 101 0.0 0.0 0.00 0.25 0.00 96 1018.8
20260831224626 57 101 0.0 0.0 0.00 0.25 0.00 96 1018.8
20260831223058 57 214 0.0 0.0 0.00 0.25 0.00 96 1018.8
20260831221504 57 214 0.0 0.0 0.00 0.25 0.00 95 1018.7
20260831220122 57 214 0.0 0.0 0.00 0.25 0.00 95 1018.6
20260831214536 57 214 0.0 0.0 0.00 0.25 0.25 95 1018.7
20260831213116 58 214 0.0 0.0 0.00 0.25 0.25 95 1018.7
20260831211529 58 240 0.0 0.0 0.00 0.25 0.25 95 1018.6
20260831210119 58 240 0.0 1.0 0.00 0.25 0.25 95 1018.4
20260831204545 58 219 0.0 2.0 0.02 0.25 0.25 95 1018.3
20260831203002 58 210 0.0 0.0 0.03 0.25 0.25 95 1018.2
20260831201529 58 210 0.0 0.0 0.03 0.25 0.25 94 1018.2
20260831200120 58 210 0.0 0.0 0.03 0.25 0.25 94 1018.1
20260831194525 59 207 0.0 0.0 0.01 0.23 0.23 92 1017.8
20260831193129 59 207 0.0 0.0 0.02 0.22 0.22 91 1017.7
20260831191544 59 252 0.0 7.0 0.02 0.22 0.22 89 1017.5
20260831190129 60 208 1.0 8.0 0.02 0.22 0.22 89 1017.2
20260831184613 60 211 4.0 10.0 0.02 0.22 0.22 89 1016.9
20260831183013 61 234 4.0 12.0 0.00 0.20 0.20 86 1016.4
20260831181553 61 113 1.0 7.0 0.02 0.20 0.20 86 1016.1
20260831180131 61 135 4.0 10.0 0.02 0.20 0.20 85 1015.6
20260831174614 61 196 3.0 7.0 0.02 0.20 0.20 86 1014.9
20260831173032 62 212 1.0 9.0 0.02 0.20 0.20 86 1014.6
20260831171634 62 201 4.0 9.0 0.02 0.18 0.18 85 1014.2
20260831170048 62 270 3.0 8.0 0.06 0.17 0.17 84 1014.0
20260831164549 63 105 0.0 9.0 0.06 0.17 0.17 82 1014.0
20260831163126 63 235 1.0 7.0 0.06 0.17 0.17 84 1013.7
20260831161611 64 144 3.0 9.0 0.05 0.17 0.17 81 1013.2
20260831160026 68 232 1.0 12.0 0.00 0.12 0.12 73 1012.0
20260831154626 69 314 7.0 16.0 0.00 0.12 0.12 70 1011.9
20260831153036 70 285 2.0 10.0 0.00 0.12 0.12 71 1011.2
20260831151627 71 162 3.0 12.0 0.00 0.12 0.12 68 1011.5
20260831150004 72 267 0.0 10.0 0.00 0.12 0.12 66 1011.6
20260831144616 72 148 1.0 9.0 0.00 0.12 0.12 66 1011.8
20260831143034 74 313 2.0 8.0 0.00 0.12 0.12 64 1011.5
20260831141615 74 306 1.0 5.0 0.00 0.12 0.12 63 1011.5
20260831140031 73 254 4.0 9.0 0.00 0.12 0.12 68 1011.4
20260831134628 73 227 0.0 1.0 0.00 0.12 0.12 72 1011.4
20260831133012 77 233 0.0 0.0 0.00 0.12 0.12 68 1011.4
20260831131549 77 210 0.0 2.0 0.00 0.12 0.12 71 1011.4
20260831130123 78 211 0.0 3.0 0.00 0.12 0.12 59 1011.6
20260831124532 78 111 0.0 2.0 0.00 0.12 0.12 59 1011.7
20260831123119 77 90 0.0 3.0 0.00 0.12 0.12 62 1011.8
20260831121524 75 240 0.0 2.0 0.00 0.12 0.12 71 1011.9
20260831120118 73 167 0.0 0.0 0.00 0.12 0.12 73 1012.1
20260831114544 72 192 0.0 1.0 0.00 0.12 0.12 76 1012.3
20260831113126 73 218 0.0 1.0 0.00 0.12 0.12 75 1012.5
20260831111540 71 211 0.0 2.0 0.00 0.12 0.12 81 1012.7
20260831110120 70 212 0.0 2.0 0.00 0.12 0.12 80 1012.9